Theta_e
353 356 352 353 352 351 352 349 348 348 347 345 344 345 341 339 337 350 349 353 350 350 347 345 343 342 341 339 334 330 326 324 322 323 323 323 322 323 324 324 325 325 323
359 351 358 354 352 349 348 349 345 345 347 346 347 347 344 340 339 345 349 349 350 349 349 345 344 342 342 338 333 328 323 322 321 323 322 321 322 323 323 324 324 324 325
356 359 355 353 352 353 354 346 347 346 347 348 348 346 343 341 339 349 348 348 348 350 348 347 344 342 342 339 333 326 323 321 322 322 321 321 321 321 322 323 323 323 322
362 359 356 354 353 354 350 351 348 343 345 346 344 343 342 342 340 343 350 348 346 345 348 347 346 343 343 338 332 325 321 321 321 321 320 320 322 322 322 323 324 324 323
361 361 356 355 362 357 353 349 348 348 343 345 344 345 344 344 342 340 348 349 347 346 344 347 346 344 342 336 328 323 322 321 320 320 320 320 321 322 322 322 322 322 322
359 360 357 357 357 356 352 351 348 348 348 346 340 339 342 343 349 348 349 351 348 346 343 342 340 340 337 331 325 322 322 320 320 319 319 319 319 320 321 321 322 323 322
355 356 357 356 355 353 352 353 350 344 346 347 344 339 343 347 347 348 351 347 348 344 340 337 336 331 325 324 322 321 320 319 319 319 317 317 318 320 321 320 321 321 321
349 354 352 352 354 352 353 352 349 345 347 346 340 335 332 338 341 336 344 343 339 338 336 333 327 319 317 317 319 319 318 318 319 318 317 317 318 319 319 320 320 320 320
347 345 352 349 349 353 351 351 350 346 340 348 343 338 330 328 332 326 320 330 328 321 319 319 318 317 316 318 317 316 316 316 317 317 317 316 316 318 320 318 319 319 319
339 344 349 352 353 353 348 349 351 347 343 339 341 343 341 337 327 318 317 314 316 315 316 317 317 317 319 315 317 316 314 314 315 316 316 315 317 318 318 318 318 318 318
332 339 336 328 323 349 349 348 350 349 347 342 340 340 338 338 337 325 314 311 312 314 315 318 316 316 319 315 313 314 313 313 313 314 313 315 315 316 316 316 318 317 317
330 340 331 322 325 330 343 346 350 347 346 346 344 341 339 335 332 330 317 313 308 310 314 315 316 316 317 316 315 314 312 312 312 311 312 312 313 314 315 316 316 316 316
324 331 331 321 317 328 344 346 348 348 347 345 345 340 342 341 341 332 319 312 309 310 311 315 315 315 318 314 313 313 313 312 311 310 310 310 311 312 312 314 314 314 314
324 327 330 338 333 335 341 346 347 345 348 347 345 346 345 343 344 330 320 317 311 308 309 309 314 315 318 313 315 314 310 311 310 310 309 309 310 310 310 311 311 310 311
325 327 330 331 341 340 338 341 346 344 347 346 346 346 347 345 342 335 326 322 316 309 308 311 310 315 314 311 314 311 309 312 310 310 309 308 308 309 309 308 308 308 309
325 325 326 329 338 339 327 324 339 343 343 346 348 346 345 346 338 332 328 326 325 320 310 310 311 312 314 313 314 309 309 312 311 310 309 308 308 307 307 306 306 306 306
323 323 325 328 334 338 332 331 338 343 339 341 344 343 344 345 339 333 329 330 329 323 310 309 312 312 313 310 310 312 311 309 308 310 309 308 307 306 306 305 305 304 305
322 322 324 327 331 337 339 337 337 340 337 338 342 342 340 339 338 335 331 328 328 320 313 307 308 310 312 310 311 312 310 312 308 310 309 308 307 305 304 304 303 303 302
320 322 324 326 327 336 337 341 340 341 337 339 341 341 339 335 334 332 330 323 320 315 314 309 308 311 311 312 311 312 312 311 309 311 309 308 306 305 304 304 302 302 301
318 320 322 326 329 335 337 338 339 339 338 338 339 339 339 334 333 330 324 319 313 312 311 310 308 308 309 311 310 308 308 310 305 309 309 308 307 306 304 303 303 302 301
318 321 323 325 329 335 338 331 330 328 332 334 336 337 336 333 329 326 322 315 314 310 310 308 306 306 306 308 307 309 306 307 308 308 307 307 306 304 301 301 301 302 300
316 320 323 324 330 334 314 315 319 321 318 329 332 332 331 323 318 316 316 315 313 311 308 306 306 306 306 309 308 308 308 305 303 309 305 305 304 301 300 298 300 300 299
315 322 325 328 330 333 307 311 314 320 323 325 321 321 317 317 316 314 312 312 313 310 311 309 307 308 307 310 309 306 305 304 304 306 306 303 305 302 300 300 300 300 299
319 322 325 327 328 318 308 308 311 324 325 324 320 318 314 312 312 312 311 310 311 312 313 313 312 312 313 313 309 309 307 307 309 306 308 300 306 302 300 298 301 301 299
317 316 319 322 321 312 304 305 315 318 316 314 315 314 312 309 305 306 308 307 307 305 305 303 302 301 301 303 308 311 306 304 302 304 309 305 302 301 301 301 300 302 300
313 314 313 314 310 308 302 304 312 313 309 307 307 307 306 307 302 304 307 306 303 304 305 305 307 306 308 308 309 312 308 304 302 300 305 303 302 302 297 301 302 303 300
Wind_Speed
6 5 4 4 9 9 10 9 9 9 11 11 10 5 5 5 4 7 7 20 20 19 20 19 16 14 12 11 9 6 6 5 6 9 11 14 15 17 18 17 16 15 14
5 6 3 4 5 3 7 11 11 10 9 11 7 5 6 5 5 8 8 10 16 17 18 18 16 14 12 11 9 6 4 4 6 8 11 13 15 17 17 17 17 17 16
8 6 6 5 5 5 6 5 6 8 5 5 4 6 7 6 5 7 11 10 11 16 17 17 15 13 13 14 10 6 3 5 6 9 11 13 15 16 16 15 15 15 16
10 9 7 5 7 5 6 5 4 4 5 5 5 6 5 5 7 6 11 11 10 9 13 16 15 14 13 13 10 6 5 5 7 10 12 13 14 16 17 17 17 17 16
14 8 8 8 4 4 5 5 4 4 4 5 5 5 5 5 6 8 11 14 13 11 8 14 14 12 15 13 8 6 5 6 8 10 12 13 15 16 16 16 16 16 16
13 12 11 11 8 5 7 5 2 5 4 4 7 8 6 5 3 6 11 10 10 10 10 10 6 8 14 11 9 6 6 7 9 10 11 14 16 17 17 17 18 18 17
1 11 11 11 11 7 10 7 4 5 10 5 2 4 2 6 7 5 5 5 7 8 11 9 7 6 6 12 9 7 7 7 9 11 12 13 14 15 16 16 17 18 18
8 7 15 10 7 7 10 10 8 4 4 4 3 2 4 1 6 7 5 6 9 7 9 9 10 9 7 3 7 9 7 8 10 11 13 15 16 16 17 18 19 19 19
12 13 9 9 14 11 7 10 8 8 6 2 4 3 2 2 4 6 10 6 9 8 8 8 9 7 6 5 7 8 9 7 9 11 13 15 16 16 17 18 19 20 20
14 13 14 9 13 8 9 8 8 8 6 7 3 4 3 5 2 1 6 8 8 8 8 6 6 4 5 6 10 10 9 8 10 12 13 15 16 16 17 18 19 19 19
12 14 6 2 11 10 10 10 8 10 7 7 7 3 6 6 7 3 3 3 5 4 5 4 6 1 4 7 6 8 9 9 11 10 14 15 15 16 17 18 19 19 19
11 11 4 6 5 14 16 12 12 11 10 8 7 6 7 4 6 5 4 2 3 1 3 5 3 4 4 7 10 14 10 9 8 8 13 15 15 16 18 19 20 20 19
10 13 3 3 4 16 22 15 12 11 11 9 9 7 7 8 3 4 5 3 3 2 4 1 6 6 4 6 8 11 12 9 6 10 13 13 14 17 18 20 20 20 19
13 16 17 7 16 14 22 17 10 9 9 9 11 10 7 5 5 6 8 8 3 1 2 2 5 3 2 6 11 14 7 9 8 10 10 12 15 16 19 21 21 20 19
12 15 16 16 11 13 14 14 10 11 11 11 11 11 9 5 5 7 9 11 10 6 4 6 3 4 3 6 11 8 7 11 10 10 8 12 15 17 20 21 19 20 19
14 16 18 17 15 5 7 14 18 14 13 9 9 11 9 5 9 8 9 9 6 5 5 3 3 4 4 5 7 10 9 11 11 9 10 14 15 18 22 19 19 19 18
14 16 17 17 16 11 12 11 21 17 15 13 9 9 9 7 8 10 9 8 5 3 7 2 3 5 6 5 5 7 10 6 5 10 12 14 14 19 19 17 19 19 20
14 16 16 16 16 14 12 14 17 15 14 15 13 9 7 7 12 12 9 11 5 5 5 12 8 6 5 8 6 6 9 9 7 12 13 14 16 18 18 18 19 19 19
17 18 17 15 16 17 14 13 15 15 15 15 13 10 7 9 11 10 9 7 7 7 6 9 10 6 5 6 4 3 3 8 8 15 14 14 16 17 17 20 19 19 19
17 19 16 17 17 18 16 15 14 14 16 12 7 8 7 10 11 13 11 11 11 9 10 9 11 8 8 6 4 4 2 6 7 7 10 11 11 18 19 16 21 21 19
17 18 17 16 18 18 12 3 4 8 13 10 6 9 8 11 14 15 12 12 12 11 11 11 12 10 7 6 6 4 4 5 3 6 6 6 4 5 8 12 13 19 20
18 19 14 17 18 11 7 15 11 7 17 19 9 8 5 12 13 15 18 17 15 14 13 12 11 11 10 7 4 4 6 5 4 4 5 5 5 5 5 4 10 15 19
18 13 14 15 12 4 7 14 20 12 8 9 6 10 8 7 15 15 17 16 9 9 7 11 14 10 8 5 6 6 5 4 5 4 6 5 4 5 5 2 5 11 15
15 10 9 10 8 6 5 10 14 18 17 11 14 13 14 12 13 17 16 12 7 6 12 11 11 10 7 8 8 7 7 5 7 3 2 4 3 6 5 2 2 9 15
3 4 6 7 6 6 10 7 15 11 11 10 9 10 15 15 17 21 17 19 15 12 18 23 18 14 15 12 5 5 3 5 5 4 4 4 3 4 3 2 2 6 18
3 3 5 6 7 6 9 15 13 9 12 9 10 11 12 23 21 21 21 16 17 15 14 16 10 11 10 5 4 4 4 6 5 5 5 5 3 6 4 3 4 3 7
Wind_Direction
180 260 238 217 187 201 189 205 219 218 222 228 238 248 290 307 273 133 155 166 165 159 161 166 176 177 176 155 142 124 99 64 28 14 6 359 354 346 345 343 342 343 343
204 178 238 262 287 245 215 195 210 220 204 218 211 209 252 237 248 152 148 165 165 163 165 170 178 181 176 159 144 122 98 57 23 18 6 359 349 346 348 342 342 344 338
168 222 208 229 249 276 279 287 208 204 194 212 217 207 223 232 241 135 147 161 162 169 170 171 180 181 181 158 151 140 98 58 23 18 6 354 354 348 345 345 346 345 344
188 198 206 207 221 231 249 266 266 251 190 187 200 231 198 222 214 184 161 158 165 169 177 173 176 186 176 158 151 127 92 58 31 19 3 359 356 355 355 355 353 352 347
190 196 195 214 202 234 246 237 257 230 234 194 213 215 201 204 224 204 162 163 164 163 165 176 175 186 159 149 137 107 85 54 35 20 9 359 0 353 354 352 350 346 345
197 189 206 198 191 212 240 230 175 281 236 217 216 233 200 195 72 7 145 148 150 152 154 155 142 145 143 135 111 100 76 42 28 28 12 4 358 350 342 349 350 354 343
321 218 218 202 180 196 228 223 181 205 256 222 172 244 213 79 64 54 80 99 118 111 127 127 124 117 122 113 113 88 66 47 37 22 16 12 4 351 351 349 352 351 351
256 212 202 230 193 194 233 221 215 209 245 213 224 201 171 88 93 34 10 77 84 107 119 116 118 114 118 140 109 91 66 50 40 28 21 12 8 356 1 356 358 357 351
294 269 211 181 219 215 221 223 217 209 217 203 136 161 174 265 88 29 21 45 76 79 71 88 104 119 129 132 113 101 86 61 46 29 18 9 5 1 359 0 359 0 356
313 306 298 214 195 205 219 233 218 212 205 228 234 175 187 138 140 86 45 7 63 69 82 79 100 125 107 119 115 111 91 68 43 25 15 9 9 1 6 4 2 1 354
296 293 190 157 15 272 221 223 213 203 199 217 221 213 213 195 173 166 143 131 41 53 91 134 129 180 134 137 121 106 98 72 48 20 21 15 15 12 9 6 3 1 358
298 311 168 137 148 276 261 219 212 206 202 205 207 218 216 201 192 141 124 136 120 108 137 161 195 169 181 159 138 130 121 79 54 39 33 26 18 15 14 9 8 1 0
298 305 121 184 217 259 244 229 202 194 198 201 205 212 203 220 182 90 113 140 161 154 183 211 177 211 178 143 141 132 122 107 80 53 39 31 27 20 17 17 10 4 1
300 299 299 217 187 243 258 222 219 199 187 202 211 212 224 217 172 144 146 150 126 125 137 133 221 138 169 141 145 150 135 135 109 75 50 39 34 25 24 23 10 7 6
291 290 299 304 308 217 249 282 229 204 191 201 207 213 212 207 134 152 153 166 152 171 169 181 161 191 165 138 159 155 150 138 115 89 72 53 44 33 31 23 10 11 11
285 287 289 297 303 185 207 221 259 221 203 195 206 206 210 198 145 156 158 171 186 141 139 148 168 152 164 146 163 153 153 139 128 118 90 65 53 44 38 22 16 16 14
284 285 286 289 291 268 210 226 245 229 214 213 202 202 197 163 154 159 161 177 180 153 128 131 117 147 159 161 169 150 152 143 140 131 98 77 66 52 39 27 21 17 21
288 285 283 285 288 274 256 232 237 234 218 219 203 191 192 161 150 164 167 179 171 110 130 137 141 151 166 154 178 185 163 160 149 140 115 94 77 63 42 31 24 20 22
293 285 282 283 282 279 257 232 228 224 215 214 202 185 167 155 162 162 165 121 107 99 132 151 133 148 137 138 169 210 117 156 136 137 118 103 87 73 52 36 27 26 27
286 278 276 277 276 272 252 244 228 230 220 207 182 150 168 162 179 158 133 132 125 119 135 138 131 144 139 170 184 161 115 106 155 141 150 139 130 81 61 42 36 33 31
281 272 271 276 277 269 265 38 315 334 282 204 163 134 154 163 167 159 141 137 138 135 147 142 139 138 156 172 178 175 128 126 142 141 135 156 177 69 55 43 36 39 37
283 272 275 276 277 278 154 155 131 19 300 265 151 102 119 126 118 112 113 131 142 149 152 142 140 147 163 186 150 124 142 144 126 107 111 104 108 91 60 49 47 46 41
285 279 283 275 275 267 173 148 139 157 246 246 93 113 100 116 118 114 101 110 128 127 139 137 131 147 134 116 109 101 95 115 95 156 127 130 141 104 95 99 58 61 51
279 287 306 323 279 75 341 145 158 179 199 165 161 140 129 126 125 121 120 110 100 109 114 109 103 111 106 114 123 137 139 149 97 105 53 115 111 109 119 120 32 61 62
337 335 357 354 26 47 51 85 94 97 94 83 87 123 124 123 131 121 120 115 107 89 88 93 93 91 82 77 100 110 175 105 92 59 25 113 99 123 114 153 136 78 67
57 346 32 37 53 65 113 106 103 109 104 104 100 102 126 135 132 129 120 114 114 121 113 103 99 89 89 86 77 194 126 99 85 55 337 80 137 141 85 40 51 52 59